sat.trackr.live / text

‹ back to catalog

DRAGRACER 2 (AUGURY)

NORAD 46955 · 2020-085AC

PAYLOAD ACTIVE UNKNOWN

§ Identity

Operator
Country
US
Launch date
2020-11-20
Launch site
RLLB
Launch vehicle
Mass (kg)
RCS (m²)

External: N2YO · Heavens-Above · Gunter

§ Orbital elements

Epoch: 2026-09-20T00:49:27.434784Z

Period
91.22 min
Inclination
97.5698°
Eccentricity
0.0002321
Mean motion
15.78569834 rev/d
Perigee alt
332.9 km
Apogee alt
336.0 km
Semi-major
6,712.6 km
B*
2.5285e-4
RAAN
107.7688°
Arg perigee
256.4935°
Mean anomaly
103.6073°
Rev number
32,679

§ Raw data

DRAGRACER 2 (AUGURY)1 46955U 20085AC  26263.03434531  .00043843  00000+0  25285-3 0  99922 46955  97.5698 107.7688 0002321 256.4935 103.6073 15.78569834326797

JSON: /api/v1/satellites/46955 · /tle

For live sub-satellite position, see the globe view (requires WebGL).

§ Visibility from observer

Set your observer location to see the next 7 days of passes ≥ 10°. The values pass through the URL so the page stays shareable.

No JS? Fill the form by hand. The geolocation button needs JavaScript.